DECAYED
Showing default

PEARL WHITE 1, 44497 (Decayed)

Orbit data source: Space-Track

PEARL WHITE 1, 44497 was a payload satellite owned by USAF AFSPC (US) in LEO that was launched on Mon, 19 Aug 2019 UTC via an ELECTRON launch vehicle from the Rocket Lab Launch Complex (RLLC). Payload-class satellites include a variety of spacecraft equipped with specific instruments for various scientific and technological missions. These include communications satellites like Starlink; space stations such as the ISS; scientific satellites like the Hubble; Earth observation satellites from companies like Planet Labs, Umbra, and HawkEye 360; GPS; miniature CubeSats for education and research; and military/defense satellites.

Not visible in the next 10 days
Identifier
44497, 2019-054C
Orbit
Decayed
Country
Flag of USUS
Related business
Manufacturer
Tiger Innov.
Mission
Decayed Defense Technology
Bus & Motor
CUBESAT 6U, Unknown motor
Mass
10 kg wet, ~10 kg dry
Launch date (UTC)
2019-08-19 (6 years ago)
Launch vehicle
ELECTRON
Launch site
Rocket Lab Launch Complex (RLLC)
Object type
Payload
Rocket body
Debris
Shape & HBR
Box, 0.1 m
Radar Cross Section
0.105 m², Medium (>0.1 m² and < 1m²)

Expand to show TLE details & history
Last TLE update: 5 months ago

TLE from 5 months ago
0 PEARL WHITE 1
1 44497U 19054C   25124.07320406  .06459266  10324-4  10001-2 0  9999
2 44497  44.9775  29.1411 0007837 242.3277 117.6851 16.32970350316775
Epoch: 2025-05-04T01:45Z
TLE epoch observation values (Epoch: 2025-05-04T01:45:24.830Z)
Latitude
-0.00002°
Longitude
140.58127°
Altitude
186.958 km
Speed
7.795 km/s
True Right ascension
01h 56m 33s
True Declination
0° 00' 00"
Sunlit
Object was in daylight at epoch
Visualization orbit readout
Latitude
Unknown
Longitude
Unknown
Altitude
Unknown
Speed
Unknown
Apparent Right ascension
Unknown
Apparent Declination
Unknown
Sunlit
N/A
Visualization observer readout
Local Sidereal Time
02:02:14
Azimuth
Unknown
Elevation
Unknown
Doppler factor
Unknown
Orbital elements
Apogee altitude
191.4 km
Perigee altitude
181.111 km
Semi-major axis
6,564.392 km
Eccentricity
0.00078
Inclination
44.9775°
RAAN
29.1411°
Arg. of periapsis
242.3277°
True anomaly
117.76459°
Mean anomaly
117.6851°
Eccentric anomaly
117.72485°
Mean motion
4.08086 °/min
Orbital period
88.22 mins
BSTAR
0.0010001
Loading maneuver chart data...
Computing Atmospheric mass density...
Loading historical data...
Loading historical data...
Loading historical data...
Loading historical data...
Loading historical data...
Loading historical data...
Loading historical data...

Documentation

Showing up to 5 results
|